NSS-11 (AAP-1)          
1 26554U 00059A   19260.80319366  .00000021  00000-0  00000+0 0  9992
2 26554   0.0144 172.0995 0002847  33.0930 256.4014  1.00271316 69463
SL-12 R/B(2)            
1 26557U 00059D   19260.27154885 -.00000101  00000-0  00000+0 0  9999
2 26557  16.1068 342.4466 5122324 292.0170  16.0686  1.86634559129284